Content
SEND FEEDBACK

Daily
Averages
Monthly
Summary
United States of America

GLENVIEW, ILLINOIS


Home > North America > United States > Illinois
Elevation: 653 feet     Latitude: 42 05N     Longitude: 087 50W

WEATHER
 
SELECT A DAY
Number of Records: 197,818;   Date Range: 7/8/95 - 10/20/14
 
SHARE

PRINT THIS DATA

[ ← Previous Day ]
WEATHER ALMANAC - FEBRUARY 13, 2013
[ Next Day → ]
[ °C ]   °F
Weather ElementAverageHighLow
Temperature33 °F44.1 °F (1:52 pm)19.9 °F (3:52 am)
Dewpoint25.8 °F30.9 °F (4:52 pm)18 °F (1:52 am)
Humidity76.2 %92 % (3:52 am)51 % (1:52 pm)
Barometer29.80 in29.92 in (1:52 am)29.74 in (1:52 pm)
Wind Speed4.6 mph10.4 mph (1:52 pm)
Weather ElementAverage
Visibility7 mi
Wind DirectionSSE (163.5 °)

Weather ElementTotal
Precipitation---
Heating Degree Days33 (Base 65)
Averaged from 23 records on February 13, 2013
WEATHER CONDITIONS BREAKOUT
WIND DIRECTION BREAKOUT
WEATHER BY HOUR - FEBRUARY 13, 2013
[ °C ]   °F
Local TimeTemperatureDewpointHumidityBarometerVisibilityWind DirectionWind SpeedGust SpeedPrecipitationEventsConditions
1:52 AM21.0 °F18.0 °F88 %29.92 in7.0 miSouth (170°)3.5 mphClear
2:52 AM21.0 °F18.0 °F88 %29.90 in7.0 miSouth (170°)3.5 mphClear
3:52 AM19.9 °F18.0 °F92 %29.87 in6.0 miSSE (160°)4.6 mphClear
4:52 AM21.0 °F18.0 °F88 %29.85 in5.0 miSouth (180°)4.6 mphClear
5:52 AM21.0 °F18.0 °F88 %29.84 in5.0 miCalmClear
6:52 AM21.0 °F19.0 °F92 %29.83 in4.0 miCalmClear
7:52 AM25.0 °F23.0 °F92 %29.83 in3.0 miSouth (170°)3.5 mphClear
8:52 AM30.0 °F25.0 °F82 %29.82 in4.0 miSW (230°)6.9 mphHaze
9:52 AM34.0 °F27.0 °F75 %29.82 in6.0 miSW (230°)4.6 mphHaze
10:52 AM37.0 °F27.0 °F67 %29.81 in6.0 miVariable4.6 mphHaze
11:52 AM39.9 °F28.0 °F63 %29.78 in7.0 miSouth (190°)5.8 mphClear
12:52 PM42.1 °F28.0 °F58 %29.75 inNorth
1:52 PM44.1 °F27.0 °F51 %29.74 in9.0 miSW (220°)10.4 mph
2:52 PM43.0 °F28.0 °F56 %29.74 in9.0 miWest (270°)9.2 mphClear
3:52 PM42.1 °F30.0 °F62 %29.75 in8.0 miWSW (250°)8.1 mphClear
4:52 PM41.0 °F30.9 °F67 %29.76 in8.0 miWSW (250°)9.2 mphClear
5:52 PM39.0 °F30.0 °F70 %29.77 in10.0 miWSW (240°)3.5 mphClear
6:52 PM37.0 °F30.0 °F76 %29.78 in9.0 miCalmClear
7:52 PM35.1 °F30.0 °F82 %29.78 in8.0 miSSW (210°)3.5 mphClear
8:52 PM36.0 °F30.0 °F79 %29.78 in8.0 miSW (230°)3.5 mphOvercast
9:52 PM36.0 °F30.0 °F79 %29.78 in9.0 miSW (220°)3.5 mphOvercast
10:52 PM36.0 °F30.0 °F79 %29.76 in9.0 miSouth (190°)3.5 mphOvercast
11:52 PM36.0 °F30.0 °F79 %29.76 in8.0 miSouth (180°)4.6 mphOvercast
Hourly data recorded from KPWK, located miles away from Glenview, Illinois







STORIES FROM OUR PARTNERS